Wetbulb
30.43 25.54 20.99 22.12 24.18 24.42 22.88 19.58 17.14 18.95 24.84 22.14 20.25 18.96 21.65 22.98 21.85 22.79 23.60 24.68 25.36 26.91 27.74 28.54 29.92 28.81 29.67 30.86 30.67 31.34 31.91 33.20 34.78 36.23 36.19 37.07 37.44 39.31 40.97 44.35 44.16 44.96 46.08 46.93
25.79 22.80 25.38 27.06 26.24 24.57 23.07 19.71 18.24 21.12 25.89 22.63 16.97 18.69 21.07 23.48 22.95 23.59 24.22 24.31 25.06 25.27 27.45 29.34 28.02 27.21 28.34 28.46 30.07 30.95 31.19 32.25 33.89 35.19 35.25 35.61 36.78 38.28 39.68 42.31 43.81 44.03 44.93 46.08
23.48 25.36 30.20 27.59 24.43 24.22 21.27 20.52 19.07 20.09 22.10 21.25 19.09 16.75 20.42 25.37 24.82 26.77 26.04 25.48 25.53 25.83 26.15 27.43 28.14 27.71 27.64 27.95 28.71 30.70 30.80 31.79 33.59 35.43 35.59 36.12 37.08 38.39 38.36 40.08 41.23 42.83 43.82 44.86
25.96 28.32 27.85 25.58 25.11 23.96 21.60 23.65 23.80 22.17 18.39 12.81 19.61 7.11 15.97 20.87 23.71 25.25 25.42 24.39 24.33 24.93 26.11 26.53 27.05 27.12 27.46 28.02 28.22 29.57 30.89 31.20 34.84 35.19 33.86 33.17 33.52 34.24 36.88 38.58 40.25 40.68 43.39 43.10
24.19 25.08 24.88 24.24 24.81 26.22 23.99 25.90 22.78 23.13 17.57 15.20 14.76 11.51 13.24 19.57 19.78 21.99 23.42 24.60 24.37 24.31 24.90 26.02 26.95 26.91 26.77 27.37 27.35 28.59 30.10 31.37 32.73 34.15 33.53 32.68 32.74 34.34 36.80 38.14 38.57 40.39 42.05 42.27
25.49 28.02 26.75 25.41 27.53 26.82 27.04 22.91 21.45 18.24 15.27 6.33 13.22 12.47 8.33 13.12 19.30 22.23 24.26 24.53 25.31 24.89 25.47 25.90 27.92 29.29 28.05 26.87 26.84 27.76 29.62 30.93 31.86 32.98 32.68 32.22 31.55 33.08 34.85 36.18 37.28 38.73 40.70 40.75
24.61 24.43 26.67 29.13 23.62 26.87 24.38 17.86 13.73 14.22 8.01 7.24 14.87 9.94 12.18 19.65 22.96 24.02 24.35 23.86 24.18 24.76 24.21 25.83 26.17 27.41 28.41 27.18 27.21 28.39 29.67 30.35 31.20 32.00 32.04 31.86 31.98 32.99 34.24 35.38 37.01 37.36 39.34 39.78
20.50 21.29 24.52 28.20 25.35 22.82 21.17 17.83 10.12 8.51 2.82 4.88 15.62 4.32 13.29 21.59 25.52 26.49 26.56 25.62 24.76 23.97 25.07 25.73 28.33 27.03 26.92 27.70 27.27 27.34 28.48 30.07 31.14 31.39 31.17 31.58 32.28 32.90 34.84 35.70 37.23 37.84 39.45 39.92
21.08 21.81 26.92 28.96 29.05 26.57 20.48 16.23 19.84 16.59 16.01 9.19 6.44 11.33 18.79 23.49 23.63 25.75 26.15 26.76 23.92 23.58 24.34 25.99 26.59 26.81 26.80 27.14 27.60 26.97 28.00 29.76 31.30 30.94 30.60 31.06 31.93 32.80 34.34 35.67 37.28 38.40 39.72 41.19
24.59 21.15 26.71 27.56 28.43 27.16 23.66 24.61 15.53 14.17 3.20 1.35 2.53 4.00 8.62 19.39 22.58 24.12 24.08 24.22 23.84 23.65 24.02 24.74 25.63 26.61 27.96 27.78 27.62 27.37 28.53 30.00 30.79 30.45 30.58 32.33 31.99 33.46 34.81 36.12 36.61 37.85 39.20 41.56
24.64 22.68 23.21 26.13 22.74 20.50 20.48 18.79 18.28 17.21 14.89 3.28 -3.30 9.71 15.27 18.79 23.29 23.25 23.69 24.47 23.39 23.57 24.20 24.53 25.23 26.56 26.94 27.48 27.28 27.89 29.13 29.86 30.04 30.83 31.57 31.82 32.30 33.47 34.65 35.89 36.59 39.50 40.03 42.24
25.32 23.18 19.65 22.89 26.24 27.78 24.01 22.87 21.88 13.70 14.54 13.83 7.41 9.64 23.82 22.37 22.76 24.00 23.56 24.97 24.87 24.53 25.57 25.45 25.78 26.38 26.88 27.64 27.73 28.17 29.44 30.00 30.95 31.49 31.73 31.82 32.49 33.16 33.61 35.58 37.49 40.33 41.02 42.30
26.55 22.04 17.17 21.59 22.31 24.08 21.27 23.56 23.64 21.46 17.30 7.55 8.40 12.88 23.97 23.20 24.78 26.01 23.34 24.04 25.34 25.68 26.05 26.52 26.65 26.97 27.90 28.16 27.85 28.55 29.32 29.80 30.78 31.40 30.76 30.94 31.44 32.60 33.31 36.20 39.36 39.80 41.04 41.00
30.68 22.59 21.67 17.85 22.70 23.20 20.18 23.14 22.76 20.15 12.08 8.65 13.83 18.99 25.56 24.86 17.22 22.21 22.93 23.83 23.66 25.17 25.79 25.95 26.23 27.18 27.86 28.03 28.07 28.53 29.51 29.98 30.22 30.79 30.54 30.31 31.13 32.52 34.18 37.18 38.99 39.61 40.93 37.73
26.89 22.86 22.62 24.21 25.37 24.84 23.74 23.44 22.61 17.52 14.12 15.46 16.97 15.17 24.70 26.10 17.17 15.19 21.93 25.43 25.73 26.16 26.61 26.87 27.13 27.25 27.59 26.30 27.56 29.08 29.28 29.41 29.82 29.50 29.86 30.18 31.88 34.02 35.89 38.18 38.58 39.27 39.05 38.69
26.35 23.06 24.52 23.32 25.11 22.61 23.97 25.01 23.79 24.31 17.14 16.58 20.54 20.07 27.72 25.81 22.46 21.35 24.66 25.80 25.16 26.49 27.30 27.43 28.17 28.50 27.11 26.89 27.41 28.90 28.30 28.33 29.18 28.55 29.26 30.94 32.36 34.59 38.16 36.40 38.38 38.15 38.39 34.70
24.88 23.33 23.36 21.29 24.31 22.81 20.44 24.18 23.71 23.73 23.11 17.66 15.96 22.70 22.72 22.63 24.70 19.85 21.33 25.19 24.31 26.90 27.60 27.86 27.97 28.37 26.49 26.79 28.42 27.70 27.73 28.53 28.18 28.12 29.37 30.47 31.98 33.48 35.90 35.23 35.21 35.45 36.93 34.69
24.93 24.77 24.05 20.61 22.10 13.60 27.03 28.83 26.98 23.40 26.79 23.14 24.01 23.19 22.45 21.59 23.49 23.92 23.88 25.26 26.82 28.06 28.13 27.91 28.11 27.18 25.95 27.33 28.01 28.12 28.23 27.95 28.32 27.70 28.14 29.43 31.35 32.99 36.06 34.21 32.70 31.88 32.20 30.75
28.29 25.18 20.79 13.60 15.86 24.06 27.16 26.60 25.51 24.13 24.34 26.95 25.19 26.94 26.94 25.18 23.47 23.79 27.06 26.59 26.71 27.50 28.36 27.24 27.09 26.01 26.09 27.24 28.06 27.06 26.82 26.90 27.60 27.37 27.46 28.94 30.74 32.94 34.80 30.81 29.24 29.87 29.56 29.61
28.27 27.07 21.43 19.36 15.17 12.53 26.52 26.79 28.26 27.24 18.20 28.67 27.25 27.15 24.59 23.87 16.04 19.95 25.39 27.87 28.35 28.51 27.16 27.03 26.38 26.10 25.99 26.91 26.79 25.77 25.61 26.24 26.24 27.47 28.29 29.11 30.68 32.78 31.39 29.23 28.40 28.68 28.76 28.70
24.44 23.73 18.76 17.60 14.23 21.57 29.12 27.81 28.89 20.73 25.95 30.27 27.68 27.58 25.27 22.07 24.60 26.89 27.23 27.77 27.38 26.86 27.27 27.31 26.04 25.44 26.22 26.95 25.41 24.07 24.93 25.36 27.14 28.11 28.47 29.69 30.24 32.14 29.68 28.44 28.06 27.30 27.29 27.50
24.01 20.12 18.47 20.09 14.06 16.31 29.42 26.13 25.10 30.12 28.16 29.51 28.23 27.79 26.97 27.80 28.07 27.73 27.83 26.42 26.27 26.39 26.40 26.93 25.07 25.22 25.86 26.24 24.71 23.74 23.40 26.22 26.92 27.09 28.40 29.15 30.50 32.63 29.84 27.52 27.11 26.48 25.59 25.09
23.77 26.70 22.84 23.83 24.15 30.20 30.85 31.22 32.19 30.51 31.05 29.33 28.68 29.34 29.03 27.68 27.50 28.30 27.36 26.09 25.79 25.73 25.47 25.45 24.89 25.20 25.14 25.10 24.39 23.89 25.18 25.88 26.64 26.49 27.35 28.33 31.27 29.77 28.89 27.46 26.58 26.00 25.12 23.71
29.10 30.06 26.25 26.72 31.21 31.96 31.70 32.86 30.87 31.30 31.14 31.54 31.31 31.04 28.97 28.58 28.38 27.85 26.68 25.38 25.05 24.46 23.85 24.00 24.22 23.99 23.61 23.81 25.25 24.80 25.62 26.32 25.96 26.26 26.99 28.17 30.28 29.00 28.37 28.28 28.18 26.05 23.72 23.28
29.50 29.17 27.63 26.96 31.82 33.28 34.02 33.63 34.69 33.45 32.01 31.75 31.83 31.54 30.34 29.33 28.11 28.25 26.78 25.86 25.51 24.38 23.44 23.80 23.51 23.48 23.05 23.30 24.02 24.67 25.65 25.68 25.30 25.86 26.71 27.92 30.11 29.65 28.24 27.86 27.37 27.35 26.41 24.83
29.83 29.10 28.55 30.95 33.70 33.19 32.88 33.57 34.72 32.76 32.19 32.65 31.66 30.34 30.43 30.29 30.00 28.28 27.21 27.17 26.20 24.53 23.68 22.91 22.75 22.94 22.88 22.98 23.97 24.45 25.20 25.21 24.76 25.44 25.64 26.45 27.30 27.14 29.16 28.78 28.72 30.13 29.57 28.90
MSLP
1027.18 1028.60 1030.37 1030.70 1030.66 1031.20 1031.76 1032.10 1032.21 1032.18 1032.35 1032.72 1033.21 1033.60 1033.68 1033.71 1033.85 1033.71 1033.31 1033.02 1032.76 1032.34 1032.05 1031.94 1031.86 1031.76 1031.52 1031.01 1030.91 1030.58 1030.00 1029.35 1028.72 1027.99 1027.33 1026.63 1026.03 1025.28 1024.57 1024.35 1023.42 1023.17 1022.71 1022.16
1028.97 1029.87 1030.79 1031.08 1031.28 1031.44 1031.58 1031.98 1032.47 1032.51 1032.71 1033.07 1033.84 1034.04 1033.95 1033.77 1033.58 1033.33 1033.10 1032.84 1032.60 1032.23 1031.93 1031.79 1031.72 1031.69 1031.64 1031.30 1030.95 1030.42 1030.05 1029.42 1028.93 1028.48 1027.92 1027.49 1026.59 1025.77 1025.25 1024.43 1024.38 1023.49 1022.67 1022.67
1029.19 1030.71 1030.64 1030.84 1031.22 1031.30 1031.74 1032.28 1032.56 1033.02 1033.31 1033.75 1034.41 1034.41 1034.02 1033.43 1033.18 1032.85 1032.63 1032.47 1032.32 1032.16 1031.97 1031.74 1031.75 1031.64 1031.52 1031.23 1030.90 1030.50 1030.02 1029.55 1028.95 1028.59 1028.07 1027.43 1026.69 1025.91 1025.19 1024.89 1024.34 1023.60 1022.61 1023.11
1030.01 1030.43 1030.59 1030.87 1031.13 1031.52 1031.73 1031.97 1032.32 1032.98 1033.96 1034.97 1035.27 1036.03 1034.34 1033.60 1033.02 1032.74 1032.39 1032.24 1032.13 1031.96 1031.84 1031.73 1031.59 1031.49 1031.28 1030.99 1030.71 1030.48 1029.85 1029.52 1028.90 1028.69 1028.38 1028.04 1027.59 1027.01 1026.15 1025.30 1024.49 1023.81 1023.88 1023.77
1030.41 1030.44 1030.58 1030.83 1031.36 1031.46 1031.96 1031.98 1032.58 1033.51 1034.80 1035.74 1036.34 1037.00 1034.27 1033.98 1033.38 1032.54 1031.92 1031.74 1031.69 1031.66 1031.81 1031.56 1031.33 1031.22 1031.05 1030.89 1030.73 1030.40 1029.90 1029.46 1029.15 1028.85 1028.55 1028.25 1027.93 1027.38 1026.74 1026.09 1025.26 1024.47 1024.05 1023.41
1030.17 1030.21 1030.39 1030.60 1031.08 1031.53 1031.91 1032.47 1033.33 1034.55 1035.82 1037.08 1037.04 1037.56 1035.47 1034.33 1032.95 1032.17 1031.46 1031.33 1031.42 1031.37 1031.35 1031.28 1031.34 1031.16 1030.98 1030.82 1030.72 1030.20 1029.89 1029.59 1029.27 1028.97 1028.62 1028.30 1028.00 1027.48 1026.90 1026.20 1025.51 1024.68 1023.70 1022.90
1030.24 1030.26 1030.30 1030.51 1031.12 1031.67 1032.21 1033.30 1034.52 1035.96 1037.22 1038.03 1037.81 1037.96 1034.77 1033.19 1032.28 1031.85 1031.43 1031.39 1031.18 1030.97 1031.25 1031.24 1031.15 1031.23 1031.05 1030.91 1030.59 1030.17 1029.91 1029.61 1029.21 1029.02 1028.72 1028.30 1027.93 1027.48 1027.04 1026.48 1025.83 1024.85 1023.77 1023.02
1030.70 1030.26 1030.43 1030.61 1031.20 1032.28 1033.36 1034.36 1035.83 1037.67 1038.94 1038.95 1038.46 1037.27 1033.51 1032.38 1031.67 1031.25 1031.06 1030.87 1030.78 1030.96 1031.04 1031.00 1031.05 1031.20 1030.99 1030.66 1030.42 1030.23 1029.87 1029.47 1029.16 1029.04 1028.75 1028.29 1027.87 1027.52 1027.10 1026.57 1026.11 1025.45 1024.66 1023.91
1030.78 1030.57 1030.43 1030.66 1031.13 1032.21 1033.58 1034.85 1035.91 1037.30 1039.03 1040.01 1038.48 1036.65 1033.57 1031.85 1031.13 1030.77 1030.70 1030.71 1030.75 1030.94 1030.98 1030.93 1030.89 1030.82 1030.64 1030.40 1030.18 1030.12 1029.79 1029.43 1029.11 1028.98 1028.78 1028.32 1027.87 1027.46 1027.17 1026.63 1026.10 1025.64 1024.89 1024.05
1030.94 1031.00 1030.76 1031.01 1031.38 1032.45 1033.18 1034.74 1036.06 1037.66 1039.50 1040.43 1038.80 1037.54 1034.97 1032.19 1031.18 1030.62 1030.52 1030.57 1030.67 1030.75 1030.92 1030.78 1030.74 1030.55 1030.30 1030.30 1030.09 1029.79 1029.55 1029.40 1029.20 1029.05 1028.85 1028.47 1028.04 1027.53 1027.05 1026.58 1026.05 1025.53 1024.89 1024.16
1030.94 1031.53 1031.49 1031.46 1031.78 1032.41 1033.70 1034.71 1036.16 1037.69 1039.25 1040.54 1039.95 1035.97 1032.77 1031.53 1030.75 1030.67 1030.44 1030.47 1030.72 1030.74 1030.70 1030.65 1030.53 1030.36 1030.27 1030.11 1029.93 1029.61 1029.43 1029.46 1029.25 1029.10 1028.93 1028.53 1028.11 1027.62 1027.12 1026.65 1025.93 1025.27 1024.63 1024.08
1031.32 1031.85 1031.83 1031.46 1031.61 1032.05 1032.92 1033.92 1035.18 1037.16 1038.73 1039.60 1039.59 1034.60 1031.08 1030.78 1030.55 1030.63 1030.64 1030.70 1030.64 1030.56 1030.57 1030.50 1030.37 1030.29 1030.08 1029.91 1029.68 1029.63 1029.51 1029.50 1029.35 1029.17 1028.96 1028.52 1028.11 1027.69 1027.21 1026.65 1025.96 1025.22 1024.65 1024.01
1031.43 1032.09 1032.20 1031.85 1032.29 1032.32 1032.83 1033.51 1034.53 1036.00 1037.46 1038.27 1038.34 1032.89 1030.29 1030.43 1030.56 1030.36 1030.65 1030.53 1030.42 1030.28 1030.27 1030.18 1030.14 1030.11 1030.00 1029.77 1029.69 1029.67 1029.65 1029.60 1029.42 1029.17 1028.93 1028.54 1028.14 1027.73 1027.30 1026.76 1026.11 1025.45 1024.88 1024.42
1031.46 1032.33 1032.46 1032.41 1031.69 1031.97 1032.71 1033.09 1033.99 1035.22 1036.85 1036.87 1034.99 1031.68 1030.07 1030.27 1030.68 1030.38 1030.40 1030.29 1030.36 1030.12 1030.00 1030.00 1029.92 1029.89 1029.84 1029.67 1029.68 1029.74 1029.76 1029.65 1029.43 1029.24 1029.02 1028.67 1028.19 1027.83 1027.41 1026.93 1026.42 1025.82 1025.37 1025.35
1032.03 1032.54 1032.49 1031.84 1031.37 1031.65 1031.65 1032.13 1033.12 1034.23 1034.73 1035.39 1032.33 1031.97 1029.84 1029.86 1030.44 1030.38 1030.02 1029.97 1030.05 1029.87 1029.67 1029.64 1029.64 1029.66 1029.60 1029.58 1029.70 1029.80 1029.81 1029.66 1029.50 1029.34 1029.03 1028.74 1028.25 1027.88 1027.45 1027.11 1026.75 1026.31 1026.02 1025.82
1032.53 1032.53 1032.54 1031.72 1031.22 1031.23 1030.97 1030.62 1031.40 1032.24 1033.37 1033.42 1032.20 1031.22 1028.97 1028.83 1029.43 1029.82 1029.54 1029.56 1029.58 1029.40 1029.23 1029.11 1028.96 1029.10 1029.26 1029.57 1029.80 1029.88 1029.84 1029.72 1029.53 1029.35 1029.07 1028.69 1028.37 1027.99 1027.61 1027.46 1027.16 1026.84 1026.64 1026.59
1032.71 1032.95 1032.92 1031.98 1031.30 1030.65 1029.83 1028.44 1029.31 1030.08 1030.51 1030.96 1031.06 1029.03 1028.85 1028.89 1029.14 1029.30 1029.05 1029.11 1029.00 1028.80 1028.63 1028.65 1028.66 1028.77 1029.00 1029.20 1029.54 1029.76 1029.72 1029.60 1029.52 1029.43 1029.10 1028.76 1028.49 1028.21 1027.92 1027.74 1027.68 1027.42 1027.10 1027.17
1032.44 1032.96 1033.23 1032.76 1031.57 1030.47 1027.34 1027.07 1027.46 1028.19 1028.14 1028.64 1028.67 1028.22 1028.01 1028.29 1028.24 1028.33 1028.24 1028.18 1028.16 1028.15 1028.22 1028.38 1028.46 1028.59 1028.76 1028.92 1029.20 1029.29 1029.43 1029.53 1029.43 1029.40 1029.20 1028.88 1028.65 1028.44 1028.08 1028.00 1027.90 1027.81 1027.81 1027.80
1031.69 1032.54 1033.40 1033.47 1032.68 1029.46 1026.49 1026.50 1026.77 1027.15 1026.66 1026.32 1027.00 1026.73 1026.95 1027.46 1027.91 1027.37 1027.00 1027.35 1027.40 1027.66 1027.78 1027.85 1027.98 1028.38 1028.74 1029.01 1029.22 1029.53 1029.71 1029.73 1029.61 1029.47 1029.24 1028.96 1028.77 1028.64 1028.40 1028.44 1028.35 1028.24 1028.21 1028.17
1032.04 1032.42 1033.30 1033.83 1033.09 1030.16 1026.09 1025.74 1025.92 1026.17 1026.00 1024.53 1025.35 1025.73 1026.46 1027.52 1027.94 1027.40 1026.53 1026.70 1026.96 1026.94 1027.20 1027.58 1027.90 1028.32 1028.63 1028.92 1029.24 1029.83 1030.16 1030.06 1029.77 1029.57 1029.34 1029.06 1028.83 1028.76 1028.83 1028.86 1028.76 1028.74 1028.68 1028.63
1032.04 1032.65 1032.91 1033.05 1032.23 1028.44 1025.31 1025.43 1025.70 1025.78 1023.92 1023.38 1024.13 1024.65 1025.92 1026.90 1026.01 1025.75 1025.84 1026.19 1026.27 1026.80 1027.08 1027.21 1027.68 1028.03 1028.17 1028.65 1029.18 1029.49 1029.36 1029.26 1029.37 1029.49 1029.26 1029.11 1029.02 1029.03 1029.09 1029.23 1029.23 1029.16 1029.05 1028.99
1029.94 1031.01 1031.56 1031.81 1030.86 1026.74 1024.39 1025.43 1024.83 1022.50 1022.33 1022.59 1023.20 1023.67 1024.53 1024.65 1025.04 1025.38 1025.77 1026.09 1026.22 1026.35 1026.86 1027.17 1027.66 1027.91 1028.17 1028.42 1028.86 1029.17 1029.21 1029.04 1029.08 1029.14 1029.16 1029.13 1029.04 1029.31 1029.51 1029.52 1029.62 1029.63 1029.54 1029.42
1028.41 1027.24 1027.72 1027.99 1025.03 1022.80 1022.39 1021.23 1021.02 1021.33 1021.55 1022.04 1022.57 1022.67 1023.16 1023.82 1024.19 1024.49 1025.08 1025.50 1025.73 1026.14 1026.50 1026.76 1027.25 1027.67 1028.07 1028.29 1028.60 1028.78 1028.66 1028.77 1028.80 1028.89 1029.11 1029.20 1029.12 1029.31 1029.64 1029.81 1029.90 1029.95 1029.91 1029.84
1026.43 1025.95 1026.10 1025.61 1021.12 1021.15 1021.44 1020.66 1020.78 1020.72 1020.91 1020.94 1021.19 1021.51 1022.11 1022.62 1022.88 1023.57 1024.38 1024.96 1025.43 1025.87 1026.33 1026.62 1027.22 1027.58 1027.77 1027.92 1028.07 1028.14 1028.24 1028.44 1028.74 1028.87 1028.73 1028.69 1028.81 1029.12 1029.36 1029.52 1029.76 1029.85 1029.97 1030.03
1025.24 1025.12 1024.14 1023.10 1020.48 1020.24 1019.79 1019.61 1019.35 1019.47 1019.85 1020.17 1020.33 1020.61 1021.14 1021.85 1022.39 1022.94 1023.67 1024.26 1024.73 1025.34 1025.93 1026.21 1026.65 1027.06 1027.34 1027.47 1027.71 1027.78 1027.93 1028.23 1028.48 1028.58 1028.67 1028.53 1028.43 1028.69 1028.81 1028.99 1029.20 1029.43 1029.64 1029.58
1023.56 1022.17 1022.35 1020.00 1018.68 1018.78 1018.42 1018.05 1018.20 1018.79 1018.93 1019.02 1019.73 1020.34 1020.57 1021.02 1021.37 1022.08 1022.86 1023.29 1023.96 1024.63 1025.23 1025.82 1026.05 1026.27 1026.44 1026.77 1027.01 1027.14 1027.50 1027.91 1028.22 1028.34 1028.28 1028.25 1028.38 1028.56 1028.74 1028.84 1028.95 1028.84 1028.97 1029.16
Wind_Speed
15 14 8 5 5 5 5 3 2 3 6 3 3 4 7 6 4 7 8 7 7 6 3 3 3 4 6 5 7 7 7 8 5 5 7 7 8 8 7 4 12 10 10 12
7 13 3 4 4 5 5 3 4 3 5 4 2 6 6 6 7 7 8 8 8 5 5 4 3 4 4 5 7 7 7 7 5 4 4 3 5 5 4 7 7 9 11 10
9 2 4 3 5 5 4 3 3 4 3 3 1 7 6 7 6 6 7 7 6 8 8 6 5 5 5 6 6 7 7 7 6 7 4 4 4 5 6 8 7 8 11 10
7 2 4 6 5 3 4 2 3 2 3 2 3 7 6 5 9 7 9 8 9 8 6 5 7 6 7 6 6 7 7 6 6 7 5 5 4 5 5 6 8 7 8 10
1 2 4 7 2 3 3 3 2 3 4 3 2 3 10 4 6 11 10 10 9 8 8 9 8 7 5 5 7 7 7 6 6 7 6 4 5 4 5 5 8 8 6 8
3 0 1 2 1 2 3 4 6 5 3 4 1 4 9 4 7 5 6 7 8 8 9 7 5 5 5 5 6 5 6 5 6 6 7 7 7 7 7 8 7 7 7 7
2 0 1 1 2 5 9 6 4 5 5 6 3 2 14 7 8 8 8 8 9 9 6 6 7 6 5 7 6 6 5 6 6 6 7 7 7 7 7 7 6 9 8 8
4 4 1 1 2 2 5 3 6 4 3 7 2 8 10 6 7 8 7 8 7 6 7 7 6 4 6 7 7 6 6 6 6 6 7 7 7 4 5 5 6 6 6 8
2 3 1 1 2 5 1 5 2 2 1 2 4 9 13 5 8 6 8 7 8 7 7 7 6 6 6 6 7 5 6 6 5 6 6 7 6 7 5 7 5 5 7 7
3 3 0 2 3 5 2 6 3 4 3 6 7 7 9 6 8 7 8 8 6 5 6 6 5 6 5 5 6 5 4 4 5 6 5 6 6 6 6 5 8 8 8 8
3 2 1 2 3 7 2 1 5 4 4 4 4 11 10 9 8 7 8 7 6 6 6 6 6 6 6 6 5 5 3 5 6 6 6 6 6 7 6 5 7 7 10 9
1 4 4 7 1 4 4 5 5 5 3 2 3 13 5 9 7 6 8 6 7 5 6 5 5 6 6 5 5 4 3 4 5 5 5 6 6 6 6 6 8 9 9 8
4 1 5 1 2 3 3 4 4 5 4 6 4 12 3 4 6 7 8 7 7 6 6 5 5 5 5 5 3 2 3 5 5 5 6 6 6 6 6 6 7 9 9 8
4 3 6 7 7 4 4 5 5 6 4 4 11 13 19 9 6 9 8 8 6 7 6 6 6 6 5 3 2 2 3 4 5 6 6 6 6 6 5 5 7 9 7 9
4 3 4 7 11 5 8 8 9 10 7 7 6 7 21 16 7 7 5 4 4 6 6 6 6 5 4 2 2 1 3 5 4 5 6 6 6 5 5 6 6 8 9 8
1 3 2 5 2 2 7 10 11 14 4 12 17 22 15 6 4 5 7 5 6 7 7 7 7 5 5 4 4 2 2 4 4 5 6 5 5 5 6 5 6 6 5 7
5 1 3 6 5 7 6 7 7 5 6 8 6 13 3 4 6 6 7 6 7 8 6 6 6 6 5 6 6 4 4 2 3 5 6 5 5 5 6 4 5 6 5 6
6 4 2 5 7 4 5 3 5 7 8 12 9 10 8 9 6 7 8 6 7 7 6 6 5 4 5 5 5 3 3 3 3 4 5 5 5 5 4 5 4 5 4 5
2 5 1 1 2 10 4 3 7 7 9 8 11 11 5 2 2 8 8 9 9 7 6 6 5 4 4 6 5 3 3 4 2 4 5 5 4 4 4 5 5 5 4 4
5 4 5 1 1 6 6 3 4 4 7 8 9 10 4 5 2 6 3 5 8 8 5 6 6 4 6 6 5 3 3 3 3 4 5 5 2 3 4 4 5 4 4 4
4 2 6 3 5 12 8 6 5 4 9 7 9 10 8 6 9 4 5 5 6 6 7 5 6 7 8 6 5 5 4 6 3 4 5 3 1 3 4 4 3 3 4 4
9 8 6 4 1 11 9 5 9 10 3 5 6 8 8 9 5 6 7 7 7 8 6 6 6 6 6 6 6 6 6 4 3 3 3 1 2 2 3 5 4 4 4 4
5 10 9 13 13 4 17 9 15 4 5 6 6 8 12 8 9 8 8 9 9 8 7 6 7 7 6 6 6 6 6 5 4 2 1 1 4 4 3 3 3 3 4 3
6 5 5 1 9 19 14 15 8 9 11 7 7 7 9 11 9 9 7 8 7 7 7 6 6 7 7 6 6 8 6 5 4 4 3 4 5 5 4 3 2 3 2 2
6 7 6 9 15 10 13 13 13 11 10 8 8 9 12 10 7 9 8 8 8 8 6 7 8 8 8 7 7 7 6 6 5 5 4 4 4 5 5 4 4 3 3 3
9 10 9 12 9 4 5 5 6 8 9 11 8 5 7 10 12 9 8 9 8 9 7 7 8 7 8 8 8 7 7 6 6 5 5 4 4 4 4 4 3 6 7 6
Wind_Direction
25 67 91 91 58 108 136 144 164 302 320 119 300 187 217 225 256 255 247 243 247 244 207 239 264 322 329 355 341 335 338 333 342 348 354 348 347 340 336 2 350 356 354 352
54 55 72 145 122 104 64 67 356 304 341 90 318 257 252 245 240 224 236 247 246 259 276 229 265 291 295 295 311 334 335 336 337 341 330 320 318 324 318 338 342 356 3 349
85 142 56 112 38 42 46 83 275 229 345 64 26 294 241 252 242 257 254 247 252 240 249 266 251 253 284 294 303 310 317 332 336 340 329 326 315 329 347 346 341 345 5 339
80 12 54 41 61 33 8 294 264 145 58 321 61 286 284 251 260 264 258 251 252 251 251 247 246 248 240 263 290 290 319 337 335 336 350 354 342 343 333 326 332 342 346 328
229 38 31 46 5 324 281 357 38 80 93 26 346 55 268 345 274 257 252 244 249 246 233 233 232 247 281 287 286 293 313 334 337 336 340 345 338 320 314 323 326 333 332 337
121 310 88 167 131 23 311 46 43 51 69 11 271 110 282 218 218 264 260 243 245 239 239 250 271 272 276 286 287 312 318 318 329 332 328 344 341 333 341 336 333 333 331 339
16 252 325 112 354 8 26 45 351 358 8 234 257 38 243 248 241 239 260 263 252 235 253 260 254 262 300 305 312 312 333 313 309 328 329 333 334 332 330 329 329 336 335 340
40 348 156 174 86 105 32 85 130 275 292 281 299 240 260 232 269 268 256 254 269 249 248 263 287 293 275 291 302 314 310 314 320 335 329 326 334 329 320 321 325 325 330 323
34 285 84 150 106 111 347 51 190 93 31 335 263 291 303 276 279 266 259 264 260 275 277 276 287 287 269 295 299 296 317 313 320 336 341 326 331 334 326 325 324 329 325 322
182 324 151 133 101 40 83 159 51 19 13 308 295 282 245 289 280 285 279 266 292 285 293 269 281 293 285 303 299 310 307 291 323 337 342 328 324 330 327 331 336 334 330 332
123 109 294 76 189 178 77 98 62 127 135 176 304 271 217 233 258 271 273 276 289 290 282 288 286 286 288 297 293 303 343 352 342 344 336 333 328 329 335 337 330 333 338 338
185 144 266 221 118 166 163 175 145 120 217 207 154 273 231 232 263 268 270 291 298 271 279 281 288 285 293 301 307 338 16 352 341 332 335 328 325 330 345 336 333 340 335 344
176 15 333 53 45 352 216 195 138 98 83 209 147 264 208 249 274 267 257 278 285 286 300 310 309 297 305 314 309 63 13 347 333 338 341 331 328 335 343 334 355 343 345 38
100 165 188 200 217 146 208 196 182 148 143 208 229 275 293 300 266 294 283 269 272 280 284 282 288 289 295 289 157 67 347 340 341 343 336 333 331 335 342 343 3 353 23 43
116 254 196 256 261 237 245 228 192 195 189 190 266 233 285 295 261 258 249 255 274 284 287 267 265 269 281 216 142 78 333 336 334 341 339 334 330 350 340 29 12 31 32 33
47 262 350 283 68 105 268 249 214 224 204 259 266 281 278 276 189 253 252 249 257 263 262 265 252 249 228 199 187 217 305 312 337 345 338 337 355 352 10 8 20 34 51 44
156 176 27 274 338 314 306 237 179 193 188 170 204 241 358 266 251 251 253 229 230 243 258 264 252 243 208 189 182 216 243 286 334 341 339 348 2 0 353 26 26 4 40 45
144 141 124 283 339 353 251 191 182 203 235 206 268 269 232 230 240 248 228 219 227 235 252 263 252 220 203 184 187 206 242 274 308 342 337 346 1 4 19 6 18 27 35 40
132 124 107 122 248 287 271 190 174 169 281 200 218 257 249 210 282 283 214 211 223 218 232 232 214 192 184 184 200 203 262 280 284 334 327 340 353 11 17 27 24 21 40 36
88 79 121 137 207 243 239 168 136 98 289 215 191 241 201 118 30 259 234 195 218 218 199 202 195 179 181 203 173 173 261 274 272 313 315 322 355 74 63 40 33 29 42 42
151 186 194 153 251 280 234 146 150 101 237 192 187 222 154 184 201 206 171 196 192 200 206 191 179 190 196 172 163 196 214 219 238 303 309 306 50 113 86 54 40 45 53 47
171 154 197 156 183 281 142 80 170 213 218 198 202 209 196 222 202 209 206 205 196 194 193 191 183 198 191 182 166 206 219 220 219 281 328 337 130 119 99 86 59 48 51 55
223 192 181 187 213 211 194 204 214 177 188 202 200 218 208 209 217 202 205 204 202 198 195 185 187 194 198 195 184 198 222 199 214 238 301 269 140 130 134 112 98 62 40 44
243 168 225 99 243 236 225 247 246 209 220 206 219 215 190 214 206 208 195 200 198 196 198 186 182 198 204 205 201 210 196 195 202 235 215 202 171 161 157 135 132 121 90 55
205 141 203 261 281 267 254 232 240 237 227 224 221 210 211 204 212 198 196 198 199 195 195 184 189 200 212 201 203 197 195 186 206 218 220 208 185 183 178 177 174 168 190 167
181 194 188 235 214 196 238 211 199 211 222 225 213 238 228 197 215 183 201 198 189 193 185 195 204 204 209 197 198 195 193 189 201 212 210 207 183 191 199 192 183 200 183 175